Theta_e
321 321 321 320 319 319 319 319 319 319 319 319 319 319 319 319 320 320 320 320 320 320 320 322 324 326 315 303 307 318 353 355 335 324 323 323 319 315 317 324 324 323 325 327 328 328 328
321 321 321 320 320 320 319 319 320 320 319 319 319 319 318 318 318 319 319 319 319 319 320 322 324 326 311 299 313 318 315 317 321 321 318 320 317 318 319 323 322 326 326 324 329 328 328
321 321 321 321 320 320 321 320 320 320 320 319 319 319 319 318 318 318 318 317 318 319 320 322 325 324 309 304 312 313 313 311 315 318 313 319 319 313 327 322 329 326 320 324 326 327 324
321 321 321 320 320 320 320 320 320 319 319 319 319 319 319 319 318 318 317 316 317 319 321 323 327 315 300 311 314 316 312 312 314 313 316 318 319 316 324 328 326 321 318 310 320 327 324
321 321 321 320 320 320 320 320 320 319 318 318 318 319 319 318 318 317 316 315 318 321 324 324 311 306 303 320 312 317 315 312 310 311 315 323 317 319 321 314 310 314 305 311 316 326 322
323 322 321 321 320 319 319 319 319 319 318 318 317 317 318 318 317 316 314 314 317 319 322 324 320 301 303 305 312 313 311 313 310 310 314 315 311 309 309 307 301 306 308 311 311 320 322
325 324 323 322 321 320 319 319 319 318 318 318 318 317 317 317 316 314 309 306 306 303 307 301 301 302 306 309 311 309 309 309 307 307 302 308 305 304 307 310 311 312 311 311 317 321 319
326 325 324 323 321 320 319 319 319 319 318 318 318 318 318 317 315 314 308 301 304 308 302 309 309 308 309 310 307 309 307 305 303 300 305 304 301 309 311 313 315 313 311 311 318 322 318
325 325 324 323 322 321 321 320 320 319 319 319 319 318 317 315 314 307 304 307 312 310 300 305 307 307 307 309 306 306 306 304 304 301 304 302 307 312 316 315 313 309 308 312 314 319 322
324 323 323 323 323 322 321 320 320 320 319 319 318 318 316 312 307 304 303 312 310 309 293 298 301 307 309 309 304 310 308 305 303 303 305 304 309 311 311 313 311 304 316 317 316 311 304
323 323 323 323 323 322 321 320 320 320 319 318 318 317 314 312 304 303 307 310 311 304 284 303 301 312 306 304 301 302 307 304 301 303 304 303 306 307 308 312 314 310 318 315 316 309 308
323 323 323 323 323 322 321 320 319 319 319 318 317 315 314 307 303 307 311 310 304 294 286 300 303 303 302 299 301 302 304 304 304 301 302 304 308 307 308 316 317 318 313 309 308 303 297
322 322 322 322 322 321 320 320 319 319 318 316 314 312 311 311 304 309 310 305 294 288 300 298 296 299 296 296 298 298 298 297 295 291 291 299 300 304 310 306 312 310 302 295 295 295 296
322 321 321 321 321 320 320 320 319 318 317 315 311 310 308 309 307 309 307 301 288 296 297 302 302 297 297 296 295 296 295 293 294 295 292 293 294 303 309 309 308 306 302 297 292 292 297
321 321 321 321 321 320 320 319 318 318 316 313 310 303 304 307 309 307 304 292 292 297 303 303 301 293 293 295 294 295 294 294 297 297 293 292 294 303 307 306 311 304 300 304 298 296 295
321 321 321 321 321 320 320 319 318 317 315 312 303 302 307 310 310 307 300 294 297 304 306 303 296 297 294 294 294 292 292 298 298 299 296 295 292 298 302 304 308 306 309 300 297 293 291
321 321 321 321 321 321 320 320 318 316 312 310 302 305 312 310 307 304 295 295 302 307 307 302 299 299 298 296 295 292 294 298 301 299 298 293 294 295 298 297 297 305 302 301 300 296 293
321 320 320 321 321 320 320 320 317 313 310 306 299 304 312 309 299 295 294 299 303 303 305 304 303 302 299 299 296 294 295 300 302 300 296 295 291 290 295 298 302 305 305 302 298 295 295
321 320 320 321 321 320 320 318 316 312 309 303 298 299 315 308 295 294 297 301 305 304 303 303 302 303 301 298 295 298 298 306 304 301 298 297 291 288 292 294 298 298 300 301 299 300 296
321 321 321 321 322 320 319 318 315 313 312 303 299 304 310 307 301 299 301 303 304 312 310 306 304 303 300 298 297 299 302 308 308 303 320 306 289 291 291 292 297 298 302 302 299 295 296
321 321 321 321 322 321 319 318 316 313 311 304 300 306 309 301 303 303 302 304 307 306 309 305 303 302 299 294 296 298 302 308 310 317 301 297 293 292 293 296 300 301 302 301 299 298 299
321 321 321 321 322 321 319 318 317 314 310 303 300 303 307 305 306 304 301 303 307 310 308 306 300 308 302 295 297 297 300 304 304 308 297 296 293 290 292 299 301 300 303 304 304 303 301
321 321 321 321 322 321 319 318 318 314 309 304 305 306 306 301 304 303 303 305 310 312 312 313 313 307 302 304 311 307 304 308 306 309 304 298 293 291 290 295 298 294 300 302 304 305 306
320 321 321 321 322 321 318 318 319 315 310 305 305 305 302 299 303 307 311 310 307 310 309 313 313 308 313 317 313 308 308 308 306 308 305 299 293 291 291 294 288 298 303 307 305 311 312
319 321 321 321 322 320 318 318 319 317 314 306 306 305 302 298 303 305 307 306 308 310 310 311 314 315 316 309 304 301 301 303 305 306 305 299 294 292 291 289 293 300 304 306 302 305 315
318 320 321 320 321 320 318 318 319 319 315 306 305 307 305 299 299 307 305 307 303 304 305 310 315 316 313 305 303 297 296 300 301 304 308 304 296 296 291 289 289 297 314 317 313 301 316
318 319 320 320 321 320 319 318 318 320 315 308 306 309 306 300 303 304 302 303 308 307 303 306 313 312 310 304 300 298 299 305 300 302 303 301 300 295 292 291 296 310 316 315 300 302 316
317 318 319 320 320 320 319 319 318 320 317 308 307 310 307 302 304 309 309 305 306 305 300 304 307 306 305 303 302 303 303 304 303 304 302 300 298 299 300 295 294 315 313 304 307 315 319
317 317 318 319 319 320 319 319 318 318 318 311 303 311 313 306 307 311 315 316 313 312 306 305 308 308 307 304 303 304 304 303 301 299 306 301 304 300 303 304 312 314 313 316 314 313 319
Wind_Speed
13 13 13 13 14 14 14 14 14 13 14 14 15 16 17 18 18 19 19 18 18 17 17 16 15 15 5 4 11 6 5 4 4 1 3 2 2 2 4 7 4 4 7 8 8 8 3
13 13 14 13 14 14 14 14 15 15 15 15 15 16 16 17 18 18 19 19 19 18 17 15 13 13 1 5 5 1 8 5 2 2 3 3 2 2 2 0 3 2 2 4 4 6 4
12 13 13 14 14 14 14 14 14 15 15 17 17 17 17 18 18 19 20 20 19 18 17 14 10 4 1 18 3 9 8 3 3 4 4 6 2 1 6 1 1 6 4 6 7 2 2
11 12 13 13 14 15 15 15 16 15 15 16 17 18 18 18 19 20 20 21 21 18 14 10 4 2 9 6 3 10 3 6 6 7 5 5 9 2 5 3 3 4 4 2 3 1 3
11 12 13 13 14 15 15 16 16 16 17 17 18 18 19 19 19 19 21 24 22 14 6 3 1 1 11 8 3 8 7 5 3 2 4 4 4 4 5 4 3 3 2 3 4 6 4
10 12 13 14 14 15 16 17 17 17 18 19 19 20 20 19 18 19 23 21 7 2 3 4 4 3 6 2 4 5 3 4 0 3 7 7 6 3 3 4 6 5 4 4 3 1 2
8 7 12 14 14 15 16 15 17 18 18 19 20 21 22 21 19 16 13 5 4 3 0 9 7 6 5 8 4 3 1 3 4 5 1 4 6 4 9 8 4 4 4 4 2 5 3
9 9 9 10 13 14 15 16 17 18 18 19 20 19 20 21 20 17 1 2 1 4 10 10 12 8 5 5 6 5 3 6 5 5 4 6 3 5 4 4 5 4 5 2 2 5 1
9 10 9 10 11 12 14 16 14 18 17 17 18 18 20 23 24 3 0 6 2 6 3 9 7 6 5 10 8 9 7 4 5 4 4 6 8 2 4 4 6 4 4 1 1 3 4
9 10 11 10 10 11 12 16 17 15 16 17 18 18 20 28 2 4 5 4 7 5 5 9 4 8 6 7 5 8 7 5 2 9 8 5 5 5 3 5 4 1 8 6 8 3 1
9 9 10 11 11 11 14 16 17 16 16 18 18 16 18 7 5 3 3 7 7 4 3 3 4 0 4 11 3 1 5 5 6 5 7 8 3 1 3 7 7 8 5 7 6 3 2
10 9 11 10 11 12 13 13 15 15 17 19 19 16 15 1 2 9 10 10 3 8 7 5 4 5 6 1 1 4 4 3 3 3 1 7 2 1 5 3 10 3 7 8 6 3 3
10 10 10 12 11 12 13 13 14 16 18 20 21 17 7 2 6 4 8 4 6 4 6 4 1 2 1 4 2 1 3 2 6 5 4 5 4 2 4 3 2 4 7 3 4 2 7
10 10 10 11 11 12 13 13 15 17 19 22 22 23 4 7 4 4 2 7 3 3 6 5 4 3 6 5 2 2 5 3 1 4 4 6 6 6 4 8 10 7 9 7 4 5 4
10 10 10 10 11 11 12 13 14 17 20 22 23 2 3 5 10 2 6 3 8 5 4 8 8 3 2 2 3 4 6 6 8 10 9 6 6 3 4 3 8 3 2 3 9 3 3
9 10 10 11 11 11 11 12 13 17 21 23 4 5 5 4 10 4 6 5 4 4 5 4 3 3 6 4 5 4 5 7 7 12 5 7 1 5 2 4 3 7 6 2 4 5 3
10 9 10 10 11 11 11 12 13 16 21 14 3 4 3 3 2 6 4 7 5 5 5 5 3 5 7 4 7 6 7 8 7 5 8 6 4 6 1 5 8 2 1 6 6 4 7
9 9 10 11 10 10 11 11 11 13 21 7 3 2 1 2 5 2 3 7 5 3 1 8 4 8 6 4 5 6 10 12 7 12 11 9 6 5 12 4 2 5 8 7 7 6 2
10 9 10 10 10 9 10 10 9 9 11 3 3 3 3 3 2 2 5 4 5 4 5 3 5 5 4 5 3 5 4 7 9 11 12 9 3 2 12 9 3 4 5 4 6 5 7
10 9 9 10 9 8 9 9 8 7 4 2 2 2 4 3 1 4 3 5 5 5 6 7 7 7 6 5 3 3 5 5 4 11 9 10 5 9 10 10 3 4 3 7 5 4 6
10 10 9 9 8 8 9 9 8 7 6 3 1 1 3 2 2 1 2 1 4 5 3 3 4 5 6 2 2 1 3 7 6 3 5 6 8 7 6 6 5 6 7 6 6 5 8
11 10 10 9 9 7 8 8 7 8 3 2 1 1 3 2 2 1 1 3 3 5 3 6 3 14 5 3 2 5 3 3 5 5 4 4 2 2 3 6 7 2 6 5 5 5 7
12 10 9 9 9 7 6 7 6 8 1 1 2 3 3 3 1 2 4 4 5 4 7 6 10 4 5 3 5 8 7 2 5 1 2 3 5 4 5 2 3 2 5 3 4 5 7
12 11 10 9 9 7 5 5 3 3 5 2 2 1 2 4 1 4 2 5 11 5 4 8 6 4 5 9 6 1 2 1 4 3 3 5 5 2 3 4 4 10 2 5 5 4 4
12 11 10 9 9 7 4 5 4 2 2 1 1 2 2 3 3 7 3 4 8 6 5 4 3 4 7 5 5 6 6 6 5 7 2 3 6 3 4 4 6 5 5 4 3 7 3
11 11 11 10 9 8 6 5 6 3 2 1 2 2 1 1 6 2 2 4 3 4 6 3 5 6 5 4 4 3 2 3 3 6 7 7 6 5 3 4 6 4 7 4 5 5 5
11 11 11 11 10 10 9 6 5 4 5 2 3 3 2 2 6 4 5 3 3 2 3 4 7 8 3 3 2 2 3 3 1 2 5 5 5 2 1 3 6 3 11 5 6 8 6
11 11 11 12 11 10 10 8 6 5 5 3 4 3 3 3 7 5 4 4 3 1 3 5 4 4 4 5 2 1 2 1 3 1 2 2 2 2 1 1 3 5 4 3 4 6 4
11 12 12 12 12 11 10 9 7 6 6 5 2 2 0 3 8 4 10 14 12 10 3 4 3 3 4 5 1 2 1 2 2 3 1 2 5 4 5 6 3 3 5 7 3 6 4
Wind_Direction
27 27 25 22 18 12 8 4 358 353 351 347 343 339 336 333 330 328 326 324 322 323 322 323 327 327 357 4 254 283 84 95 106 93 182 164 52 114 66 135 133 182 192 252 57 333 353
22 17 18 18 18 16 11 6 359 353 352 349 344 340 337 333 329 326 324 320 317 315 315 316 322 323 44 288 255 249 38 316 154 141 264 126 180 155 142 339 170 145 316 30 47 298 281
13 14 11 9 8 7 3 1 359 354 351 351 347 341 338 336 330 325 321 315 310 308 307 306 312 313 102 237 265 317 345 262 174 198 262 124 181 142 119 134 350 102 62 358 282 256 310
12 6 5 2 0 357 358 356 355 352 347 345 345 339 335 332 329 325 318 309 305 300 296 283 292 239 246 248 282 290 171 288 244 235 206 141 192 142 115 71 91 48 48 81 275 116 307
11 6 2 358 355 353 354 353 353 351 346 343 338 336 331 327 324 319 313 308 300 288 236 194 225 190 265 302 270 272 161 219 268 289 262 172 145 122 75 101 32 23 171 235 303 210 236
5 3 2 359 355 350 349 349 350 347 345 342 339 334 329 323 321 322 318 304 289 327 167 186 260 6 276 303 304 275 211 171 242 354 360 54 56 85 62 98 236 240 167 225 247 136 285
347 351 354 353 354 352 349 348 347 344 342 341 338 333 327 323 320 327 341 6 18 12 168 203 202 248 295 289 297 304 19 42 90 71 213 351 73 225 236 200 237 173 162 133 201 183 149
346 342 337 342 344 346 347 345 344 342 341 338 331 321 323 322 319 317 256 80 211 147 299 232 239 251 271 71 313 318 87 130 125 193 117 22 260 247 246 181 155 188 170 148 106 140 101
346 336 334 328 334 337 339 337 334 334 328 322 322 323 328 323 323 94 291 235 327 323 208 289 205 218 197 139 211 261 141 162 139 180 164 156 234 47 169 145 144 252 141 79 73 117 44
327 330 329 328 323 326 333 335 331 320 318 317 317 321 334 330 51 327 267 266 302 186 48 276 252 266 156 137 272 215 196 148 167 191 157 209 257 228 151 167 166 241 150 72 120 99 262
317 323 325 324 325 328 326 333 330 320 317 313 314 319 332 337 296 279 289 312 310 58 346 226 216 11 164 151 207 220 192 67 172 184 107 238 202 39 155 203 175 210 225 136 160 85 70
309 314 316 323 324 326 320 315 325 318 314 312 311 316 326 129 244 248 315 315 64 43 257 324 135 175 120 207 299 351 123 90 157 179 133 227 310 203 201 211 193 180 83 42 46 71 352
298 305 312 317 319 322 319 315 323 318 313 310 308 306 297 258 236 333 308 35 46 154 312 353 341 145 85 163 205 132 98 117 167 122 291 342 254 235 163 220 99 64 70 22 36 21 222
292 299 305 310 317 322 319 319 321 318 316 313 312 311 249 207 250 306 33 52 173 248 260 311 311 144 174 148 246 168 140 206 221 105 120 168 301 166 183 183 190 188 151 157 204 195 210
287 295 301 306 312 314 316 319 320 320 320 319 317 320 258 252 192 340 79 97 210 213 306 338 332 45 35 249 178 153 188 203 204 171 163 136 265 288 177 159 137 188 186 178 102 26 68
279 289 298 304 308 310 313 318 322 325 325 327 322 338 269 114 158 92 79 231 244 240 348 355 4 40 13 247 156 144 193 217 218 183 152 208 319 221 290 137 68 156 159 116 11 138 231
273 283 293 299 304 310 317 323 330 334 330 331 18 360 292 160 168 51 156 234 279 267 358 340 314 283 228 274 178 194 215 278 204 156 128 136 119 274 131 183 186 125 158 50 113 115 160
268 280 291 298 302 309 319 331 339 349 336 42 347 25 326 127 63 55 181 200 247 276 357 263 237 202 235 220 239 223 217 207 178 154 163 192 154 220 225 238 148 171 181 154 129 223 230
264 272 284 294 297 307 318 328 342 4 37 338 359 276 342 43 144 244 274 277 244 256 238 256 270 254 259 272 245 195 200 227 208 168 168 177 217 321 326 351 32 194 177 149 110 99 193
259 266 276 287 294 303 315 329 339 352 27 83 27 32 330 58 143 127 8 284 320 269 261 213 247 227 218 235 288 286 334 307 324 195 157 111 129 167 212 213 165 290 212 179 133 122 175
256 265 272 283 287 295 309 325 334 339 341 122 110 275 189 263 271 131 211 295 292 310 243 273 290 227 259 185 339 153 303 320 334 98 92 121 166 170 223 235 181 218 252 151 176 214 159
252 252 263 272 276 280 304 321 334 339 82 72 120 35 343 264 298 226 285 226 275 290 281 302 244 305 254 213 156 255 209 217 261 358 84 331 137 142 179 215 230 229 295 310 210 160 273
257 248 252 265 270 265 301 315 336 348 24 43 305 313 119 272 297 123 222 233 264 312 282 257 304 310 47 316 278 242 216 207 229 1 22 66 110 95 255 285 265 8 241 231 258 222 154
266 244 245 254 262 251 291 295 310 16 64 148 252 79 68 270 240 217 237 278 276 249 236 289 315 7 264 343 273 248 113 279 214 275 173 134 96 119 207 51 264 238 239 222 204 228 251
280 245 234 243 251 237 267 272 295 170 138 117 277 126 150 265 246 284 302 274 294 288 212 245 289 252 326 358 38 22 347 23 324 28 1 118 123 108 150 170 277 306 41 23 356 276 222
279 260 229 230 239 226 243 258 270 218 192 162 238 171 138 113 247 39 323 287 278 307 330 276 315 311 22 67 64 109 208 224 298 351 40 62 64 122 134 157 212 247 301 327 287 271 201
276 268 234 226 226 218 234 250 265 268 176 145 273 186 111 223 263 173 210 249 323 359 274 309 324 339 12 45 87 145 245 283 22 31 339 352 4 115 140 224 284 257 304 284 124 233 331
276 264 242 223 224 215 227 242 264 265 170 137 265 208 156 241 277 221 221 221 347 112 238 287 25 331 26 65 73 251 114 161 87 142 107 117 24 320 60 328 286 1 5 185 236 305 225
274 264 242 223 215 216 220 232 251 251 181 133 284 300 110 207 254 262 246 230 220 223 143 320 201 251 188 90 113 152 30 16 188 174 191 148 168 209 188 229 277 293 233 269 258 264 259